Weather in Tervolovo

Russia / Saint-Petersburg and Leningrad Oblast     59°40′11″N   29°54′12″E
temp.,
°C
wind,
m/s
gust,
m/s
humid.,
%
clouds,
%
prec.,
mm/h
press.,
hPa
HPBL,
m
6 august, fri
fri600:00+11nne228261 0.0 101615
03:00+10nne238558 0.0 101541
06:00+12nne2574100 0.0 1015156
09:00+15ne36736 0.0 1014387
12:00+19ene795177 0.1 10141816
15:00+18ne7105813 0.1 10131283
18:00+15ne61077100 0.1 1013848
21:00+14ene51083100 0.1 1013616
7 august, sat
sat700:00+13ene51188100 0.0 1012585
03:00+13ene51291100 0.0 1011522
06:00+14ene61389100 0.0 1010577
09:00+13ene61396100 0.4 1009583
12:00+14ene51298100 1.4 1008670
15:00+15e51298100 2.7 1007634
18:00+15e41099100 4.5 1006689
21:00+16ese4999100 4.8 1006385
8 august, sun
sun800:00+16e359999 0.0 1006223
03:00+16se2499100 0.1 1007146
06:00+14s379815 0.3 1008199
09:00+16ssw4692100 0.3 1009358
12:00+19ssw347775 0.2 1010742
15:00+17ssw3584100 0.8 1012339
18:00+21ssw246832 0.0 1012927
21:00+17sse3386100 0.1 101352
9 august, mon
mon900:00+16s2492100 0.0 101362
03:00+15s3694100 0.0 1014111
06:00+15se379493 0.0 1013142
09:00+18se4118396 0.0 1012416
12:00+24s686099 0.0 10121441
15:00+22ssw686997 0.4 1014881
18:00+21ssw5875100 0.0 1014831
21:00+18sw48885 0.0 1015383
10 august, tue
tue1000:00+15sw269711 0.0 1016137
03:00+14sw37951 0.0 1017134
06:00+14ssw37955 0.0 1017138
09:00+19sw3572100 0.0 1018531
12:00+23sw3452100 0.0 10181429
15:00+24sw3446100 0.0 10172010
18:00+19nnw2474100 0.0 1018180
21:00+17n118392 0.0 101711